• In Germany
  • List of Countries
  • For 7 days
  • Water Temperature
  • Satellite Maps
  • Weather Map
  • Weather Widgets
  • user-avatar
    Login

    Hourly Weather Linz

    Today, 29 May, Monday

    Time Temperature Precipitation Wind Pressure Humidity
    00:00 +14°C° 0 mm 1 mps 736 mmHg 89%
    01:00 +14°C° 0 mm 1 mps 735 mmHg 89%
    02:00 +14°C° 0 mm 1 mps 735 mmHg 89%
    03:00 +13°C° 0 mm 1 mps 735 mmHg 89%
    04:00 +13°C° 0 mm 1 mps 735 mmHg 89%
    05:00 +16°C° 0 mm 1 mps 735 mmHg 83%
    06:00 +19°C° 0 mm 1 mps 735 mmHg 77%
    07:00 +21°C° 0 mm 1 mps 735 mmHg 65%
    08:00 +23°C° 0 mm 1 mps 735 mmHg 60%
    09:00 +25°C° 0 mm 1 mps 735 mmHg 55%
    10:00 +27°C° 0 mm 1 mps 734 mmHg 50%
    11:00 +28°C° 0 mm 1 mps 734 mmHg 47%
    12:00 +29°C° 0 mm 1 mps 734 mmHg 44%
    13:00 +30°C° 0 mm 1 mps 734 mmHg 40%
    14:00 +30°C° 0 mm 1 mps 734 mmHg 41%
    15:00 +30°C° 0 mm 1 mps 733 mmHg 42%
    16:00 +30°C° 0 mm 1 mps 733 mmHg 44%
    17:00 +27°C° 0 mm 1 mps 733 mmHg 53%
    18:00 +25°C° 0 mm 1 mps 732 mmHg 62%
    19:00 +23°C° 0 mm 1 mps 732 mmHg 72%
    20:00 +21°C° 0 mm 1 mps 732 mmHg 76%
    21:00 +19°C° 0 mm 1 mps 732 mmHg 80%
    22:00 +15°C° 0 mm 1 mps 732 mmHg 84%
    23:00 +15°C° 0 mm 1 mps 732 mmHg 83%

    Tomorrow, 30 May, Tuesday

    Time Temperature Precipitation Wind Pressure Humidity
    00:00 +15°C° 0 mm 1 mps 732 mmHg 81%
    01:00 +16°C° 0 mm 1 mps 732 mmHg 79%
    02:00 +15°C° 0 mm 1 mps 732 mmHg 79%
    03:00 +15°C° 0 mm 1 mps 732 mmHg 80%
    04:00 +15°C° 0 mm 1 mps 732 mmHg 80%
    05:00 +19°C° 0 mm 1 mps 732 mmHg 75%
    06:00 +21°C° 0 mm 1 mps 733 mmHg 70%
    07:00 +21°C° 0 mm 0 mps 733 mmHg 65%
    08:00 +25°C° 0 mm 1 mps 733 mmHg 61%
    09:00 +26°C° 0 mm 1 mps 733 mmHg 57%
    10:00 +27°C° 0 mm 1 mps 733 mmHg 54%
    11:00 +28°C° 0.1 mm 1 mps 733 mmHg 54%
    12:00 +29°C° 0.1 mm 1 mps 733 mmHg 54%
    13:00 +29°C° 0.1 mm 1 mps 733 mmHg 53%
    14:00 +29°C° 0.3 mm 1 mps 733 mmHg 55%
    15:00 +29°C° 0.3 mm 1 mps 732 mmHg 56%
    16:00 +29°C° 0.3 mm 1 mps 732 mmHg 57%
    17:00 +27°C° 0.9 mm 1 mps 732 mmHg 66%
    18:00 +26°C° 0.9 mm 1 mps 732 mmHg 74%
    19:00 +24°C° 0.9 mm 1 mps 733 mmHg 83%
    20:00 +23°C° 1.2 mm 2 mps 733 mmHg 86%
    21:00 +21°C° 1.2 mm 2 mps 733 mmHg 89%
    22:00 +20°C° 1.2 mm 2 mps 734 mmHg 93%
    23:00 +20°C° 0.5 mm 2 mps 734 mmHg 94%

    Day after tomorrow, 31 May, Wednesday

    Time Temperature Precipitation Wind Pressure Humidity
    00:00 +19°C° 0.5 mm 2 mps 734 mmHg 95%
    01:00 +19°C° 0.5 mm 2 mps 734 mmHg 96%
    02:00 +18°C° 0.2 mm 2 mps 734 mmHg 96%
    03:00 +19°C° 0.2 mm 1 mps 734 mmHg 96%
    04:00 +18°C° 0.2 mm 1 mps 734 mmHg 97%
    05:00 +19°C° 0 mm 1 mps 735 mmHg 94%
    06:00 +20°C° 0 mm 1 mps 735 mmHg 92%
    07:00 +21°C° 0 mm 2 mps 735 mmHg 90%
    08:00 +23°C° 0.1 mm 2 mps 736 mmHg 84%
    09:00 +24°C° 0.1 mm 2 mps 736 mmHg 79%
    10:00 +25°C° 0.1 mm 3 mps 736 mmHg 73%
    11:00 +25°C° 0.3 mm 3 mps 736 mmHg 71%
    12:00 +26°C° 0.3 mm 3 mps 736 mmHg 69%
    13:00 +26°C° 0.3 mm 3 mps 736 mmHg 67%
    14:00 +26°C° 0.2 mm 2 mps 735 mmHg 67%
    15:00 +26°C° 0.2 mm 2 mps 735 mmHg 66%
    16:00 +26°C° 0.2 mm 2 mps 735 mmHg 66%
    17:00 +25°C° 0.3 mm 1 mps 735 mmHg 73%
    18:00 +24°C° 0.3 mm 1 mps 735 mmHg 80%
    19:00 +23°C° 0.3 mm 1 mps 735 mmHg 86%
    20:00 +21°C° 0.2 mm 1 mps 735 mmHg 89%
    21:00 +17°C° 0.2 mm 0 mps 735 mmHg 91%
    22:00 +15°C° 0.2 mm 0 mps 735 mmHg 94%
    23:00 +14°C° 0 mm 0 mps 735 mmHg 94%

    1 June, Thursday

    Time Temperature Precipitation Wind Pressure Humidity
    00:00 +14°C° 0 mm 0 mps 735 mmHg 94%
    01:00 +15°C° 0 mm 1 mps 735 mmHg 95%
    02:00 +15°C° 0.1 mm 1 mps 735 mmHg 95%
    03:00 +15°C° 0.1 mm 1 mps 735 mmHg 95%
    04:00 +15°C° 0.1 mm 1 mps 735 mmHg 96%
    05:00 +16°C° 0 mm 1 mps 736 mmHg 93%
    06:00 +19°C° 0 mm 1 mps 736 mmHg 89%
    07:00 +20°C° 0 mm 1 mps 736 mmHg 86%
    08:00 +21°C° 0.1 mm 1 mps 737 mmHg 83%
    09:00 +22°C° 0.1 mm 1 mps 737 mmHg 81%
    10:00 +23°C° 0.1 mm 1 mps 737 mmHg 79%
    11:00 +24°C° 0.3 mm 1 mps 737 mmHg 75%
    12:00 +24°C° 0.3 mm 1 mps 737 mmHg 72%
    13:00 +25°C° 0.3 mm 1 mps 737 mmHg 68%
    14:00 +25°C° 0.2 mm 1 mps 736 mmHg 68%
    15:00 +25°C° 0.2 mm 2 mps 736 mmHg 68%
    16:00 +25°C° 0.2 mm 2 mps 736 mmHg 68%
    17:00 +24°C° 0.1 mm 2 mps 736 mmHg 73%
    18:00 +23°C° 0.1 mm 2 mps 736 mmHg 79%
    19:00 +21°C° 0.1 mm 2 mps 736 mmHg 85%
    20:00 +20°C° 0 mm 2 mps 736 mmHg 87%
    21:00 +18°C° 0 mm 2 mps 737 mmHg 89%
    22:00 +17°C° 0 mm 2 mps 737 mmHg 91%
    23:00 +16°C° 0.1 mm 2 mps 737 mmHg 91%

    2 June, Friday

    Time Temperature Precipitation Wind Pressure Humidity
    00:00 +16°C° 0.1 mm 2 mps 736 mmHg 91%
    01:00 +15°C° 0.1 mm 2 mps 736 mmHg 91%
    02:00 +15°C° 0 mm 2 mps 736 mmHg 90%
    03:00 +14°C° 0 mm 2 mps 736 mmHg 88%
    04:00 +14°C° 0 mm 1 mps 736 mmHg 87%
    05:00 +16°C° 0 mm 2 mps 736 mmHg 82%
    06:00 +17°C° 0 mm 2 mps 736 mmHg 78%
    07:00 +19°C° 0 mm 2 mps 736 mmHg 74%
    08:00 +20°C° 0 mm 2 mps 736 mmHg 69%
    09:00 +23°C° 0 mm 2 mps 736 mmHg 64%
    10:00 +24°C° 0 mm 2 mps 736 mmHg 59%
    11:00 +25°C° 0 mm 3 mps 736 mmHg 58%
    12:00 +26°C° 0 mm 3 mps 735 mmHg 58%
    13:00 +27°C° 0 mm 3 mps 735 mmHg 57%
    14:00 +27°C° 0 mm 3 mps 735 mmHg 58%
    15:00 +27°C° 0 mm 3 mps 734 mmHg 60%
    16:00 +27°C° 0 mm 3 mps 734 mmHg 61%
    17:00 +25°C° 0 mm 3 mps 734 mmHg 68%
    18:00 +24°C° 0 mm 3 mps 734 mmHg 74%
    19:00 +23°C° 0 mm 2 mps 734 mmHg 81%
    20:00 +20°C° 0 mm 2 mps 734 mmHg 83%
    21:00 +18°C° 0 mm 2 mps 734 mmHg 85%
    22:00 +17°C° 0 mm 2 mps 734 mmHg 87%
    23:00 +16°C° 0 mm 2 mps 734 mmHg 88%

    3 June, Saturday

    Time Temperature Precipitation Wind Pressure Humidity
    00:00 +16°C° 0 mm 2 mps 733 mmHg 89%
    01:00 +15°C° 0 mm 1 mps 733 mmHg 90%
    02:00 +15°C° 0 mm 1 mps 733 mmHg 91%
    03:00 +14°C° 0 mm 1 mps 733 mmHg 91%
    04:00 +14°C° 0 mm 1 mps 733 mmHg 92%
    05:00 +16°C° 0 mm 1 mps 733 mmHg 86%
    06:00 +19°C° 0 mm 1 mps 733 mmHg 81%
    07:00 +20°C° 0 mm 0 mps 734 mmHg 75%
    08:00 +23°C° 0 mm 1 mps 734 mmHg 71%
    09:00 +25°C° 0 mm 1 mps 734 mmHg 67%
    10:00 +26°C° 0 mm 1 mps 734 mmHg 64%
    11:00 +27°C° 0.1 mm 1 mps 733 mmHg 62%
    12:00 +28°C° 0.1 mm 1 mps 733 mmHg 60%
    13:00 +28°C° 0.1 mm 1 mps 733 mmHg 58%
    14:00 +28°C° 0.2 mm 1 mps 733 mmHg 59%
    15:00 +28°C° 0.2 mm 1 mps 732 mmHg 59%
    16:00 +29°C° 0.2 mm 2 mps 732 mmHg 59%
    17:00 +27°C° 0.1 mm 2 mps 732 mmHg 66%
    18:00 +26°C° 0.1 mm 1 mps 732 mmHg 72%
    19:00 +25°C° 0.1 mm 1 mps 732 mmHg 79%
    20:00 +23°C° 0 mm 1 mps 732 mmHg 82%
    21:00 +21°C° 0 mm 1 mps 732 mmHg 85%
    22:00 +19°C° 0 mm 1 mps 732 mmHg 88%
    23:00 +19°C° 0 mm 1 mps 732 mmHg 88%
    Show more